Findlay, OH

12:02 AM EDT on April 27, 2018 (GMT -0400)
Findlay

Weather History for KFDY - September, 2014

Change the Weather History Date:

Tuesday, September 9, 2014

  Actual Average Record
Temperature  
Mean Temperature 69 °F -  
Max Temperature 81 °F 76 °F 96 °F (2002)
Min Temperature 59 °F 56 °F 42 °F (1998)
Cooling Degree Days 4    
Growing Degree Days 19 (Base 50)    
Moisture  
Dew Point 59 °F    
Average Humidity 76    
Maximum Humidity 93    
Minimum Humidity 39    
Precipitation  
Precipitation 0.03 in - - ()
Sea Level Pressure  
Sea Level Pressure 30.02 in    
Wind  
Wind Speed 4 mph (SSE)    
Max Wind Speed 10 mph    
Max Gust Speed -    
Visibility 9 miles    
Events      
Averages and records for this station are not official NWS values.
T = Trace of Precipitation, MM = Missing Value Source: NWS Daily Summary

Daily Weather History Graph

Daily Weather History Graph

Search for Another Location

Airport or City:

Astronomy

Sep. 09, 2014 Rise Set
Actual Time 7:09 AM EDT 7:53 PM EDT
Civil Twilight 6:41 AM EDT 8:21 PM EDT
Nautical Twilight 6:08 AM EDT 8:54 PM EDT
Astronomical Twilight 5:34 AM EDT 9:28 PM EDT
Moon 8:11 PM EDT (9/9) 7:45 AM EDT (9/9)
Length of Visible Light 13h 40m
Length of Day
12h 44m
Waxing Gibbous, 99% of the Moon is Illuminated
Sep 9
Waxing Gibbous
Sep 15
Last Quarter
Sep 24
New
Oct 1
First Quarter
Oct 8
Full

Hourly Weather History & Observations

Time (EDT) Temp. Dew Point Humidity Pressure Visibility Wind Dir Wind Speed Gust Speed Precip Events Conditions
1:53 AM 62.1 °F 57.9 °F 86% 30.04 in 10.0 mi South 5.8 mph - N/A   Clear
2:53 AM 62.1 °F 59.0 °F 90% 30.03 in 10.0 mi SSE 4.6 mph - N/A   Clear
3:53 AM 62.1 °F 57.9 °F 86% 30.03 in 10.0 mi North - - N/A   Clear
4:53 AM 59.0 °F 57.0 °F 93% 30.03 in 7.0 mi Calm Calm - N/A   Clear
5:53 AM 60.1 °F 57.0 °F 90% 30.03 in 6.0 mi Calm Calm - N/A   Clear
6:53 AM 59.0 °F 55.9 °F 90% 30.04 in 5.0 mi ESE 5.8 mph - N/A   Clear
7:53 AM 62.1 °F 60.1 °F 93% 30.05 in 4.0 mi SE 4.6 mph - N/A   Clear
8:53 AM 64.0 °F 61.0 °F 90% 30.06 in 5.0 mi SSE 5.8 mph - N/A   Partly Cloudy
9:53 AM 68.0 °F 64.0 °F 87% 30.06 in 7.0 mi South 5.8 mph - N/A   Scattered Clouds
10:53 AM 73.0 °F 64.9 °F 76% 30.07 in 10.0 mi SSE 5.8 mph - N/A   Clear
11:53 AM 77.0 °F 62.1 °F 60% 30.06 in 10.0 mi Calm Calm - N/A   Clear
1:53 PM 79.0 °F 55.0 °F 44% 30.03 in 10.0 mi WSW 10.4 mph - N/A   Clear
3:53 PM 78.1 °F 51.1 °F 39% 30.01 in 10.0 mi SSW 5.8 mph - N/A   Partly Cloudy
5:53 PM 75.9 °F 54.0 °F 46% 29.99 in 10.0 mi SW 3.5 mph - N/A   Scattered Clouds
6:53 PM 75.9 °F 55.9 °F 50% 30.00 in 10.0 mi WNW 3.5 mph - N/A   Mostly Cloudy
7:53 PM 68.0 °F 62.1 °F 81% 29.99 in 10.0 mi Calm Calm - 0.03 in   Mostly Cloudy
8:53 PM 68.0 °F 63.0 °F 84% 29.97 in 10.0 mi East 3.5 mph - N/A   Clear
9:53 PM 68.0 °F 61.0 °F 78% 29.97 in 10.0 mi ESE 3.5 mph - N/A   Overcast
10:53 PM 66.9 °F 61.0 °F 81% 29.97 in 10.0 mi SSE 4.6 mph - N/A   Mostly Cloudy
11:53 PM 66.9 °F 59.0 °F 76% 29.96 in 10.0 mi SSE 5.8 mph - N/A   Mostly Cloudy